Montgomery, AL

10:13 PM CDT on October 20, 2017 (GMT -0500)
Montgomery Regional

Weather History for KMGM - May, 2013

Change the Weather History Date:

Tuesday, May 21, 2013

  Actual Average Record
Temperature  
Mean Temperature 79 °F 74 °F  
Max Temperature 92 °F 85 °F 97 °F (1962)
Min Temperature 66 °F 62 °F 48 °F (1894)
Cooling Degree Days 14 9  
Month to date cooling degree days 108 135  
Year to date cooling degree days 240 236  
Growing Degree Days 28 (Base 50)    
Moisture  
Dew Point 66 °F    
Average Humidity 66    
Maximum Humidity 93    
Minimum Humidity 38    
Precipitation  
Precipitation 0.00 in 0.11 in 3.33 in (1880)
Month to date precipitation 1.62 2.43  
Year to date precipitation 25.70 22.33  
Sea Level Pressure  
Sea Level Pressure 29.96 in    
Wind  
Wind Speed 3 mph (South)    
Max Wind Speed 12 mph    
Max Gust Speed 20 mph    
Visibility 9 miles    
Events      
T = Trace of Precipitation, MM = Missing Value Source: NWS Daily Summary

Daily Weather History Graph

Daily Weather History Graph

Search for Another Location

Airport or City:

Trip Planner

Search our weather history database for the weather conditions in past years. The results will help you decide how hot, cold, wet, or windy it might be!

Date:

Astronomy

May. 21, 2013 Rise Set
Actual Time 5:43 AM CDT 7:40 PM CDT
Civil Twilight 5:16 AM CDT 8:08 PM CDT
Nautical Twilight 4:43 AM CDT 8:41 PM CDT
Astronomical Twilight 4:08 AM CDT 9:16 PM CDT
Moon 4:05 PM CDT 2:58 AM CDT
Length of Visible Light 14h 51m
Length of Day
13h 57m
Waxing Gibbous, 84% of the Moon is Illuminated
May 21
Waxing Gibbous
May 24
Full
May 31
Last Quarter
Jun 8
New
Jun 16
First Quarter

Hourly Weather History & Observations

Time (CDT) Temp. Heat Index Dew Point Humidity Pressure Visibility Wind Dir Wind Speed Gust Speed Precip Events Conditions
12:53 AM 73.0 °F - 66.0 °F 79% 29.98 in 10.0 mi Calm Calm - N/A   Clear
1:53 AM 72.0 °F - 66.0 °F 81% 29.98 in 10.0 mi South 3.5 mph - N/A   Clear
2:53 AM 70.0 °F - 66.0 °F 87% 29.96 in 10.0 mi Calm Calm - N/A   Clear
3:53 AM 69.1 °F - 66.0 °F 90% 29.97 in 10.0 mi Calm Calm - N/A   Clear
4:53 AM 68.0 °F - 64.9 °F 90% 29.99 in 6.0 mi Calm Calm - N/A   Clear
5:53 AM 66.9 °F - 64.0 °F 90% 29.99 in 3.0 mi Calm Calm - N/A   Clear
6:53 AM 70.0 °F - 66.9 °F 90% 30.01 in 5.0 mi Calm Calm - N/A   Clear
7:53 AM 73.9 °F - 68.0 °F 82% 30.03 in 10.0 mi Calm Calm - N/A   Overcast
8:53 AM 79.0 °F - 68.0 °F 69% 30.03 in 10.0 mi Calm Calm - N/A   Clear
9:53 AM 82.9 °F 85.0 °F 66.0 °F 56% 30.02 in 10.0 mi Calm Calm - N/A   Clear
10:53 AM 84.9 °F 87.1 °F 66.0 °F 53% 30.02 in 10.0 mi Calm Calm - N/A   Clear
11:53 AM 87.1 °F 89.2 °F 66.0 °F 49% 30.01 in 10.0 mi Calm Calm - N/A   Clear
12:53 PM 87.1 °F 89.2 °F 66.0 °F 49% 29.99 in 10.0 mi ESE 5.8 mph - N/A   Scattered Clouds
1:53 PM 91.0 °F 93.0 °F 64.9 °F 42% 29.96 in 10.0 mi SSE 5.8 mph - N/A   Clear
2:53 PM 91.0 °F 92.6 °F 64.0 °F 41% 29.94 in 10.0 mi SSE 8.1 mph 17.3 mph N/A   Clear
3:53 PM 91.9 °F 92.5 °F 62.1 °F 37% 29.92 in 10.0 mi SSE 8.1 mph - N/A   Clear
4:53 PM 91.0 °F 91.9 °F 63.0 °F 39% 29.89 in 10.0 mi South 6.9 mph - N/A   Clear
5:53 PM 90.0 °F 91.7 °F 64.9 °F 43% 29.88 in 10.0 mi South 4.6 mph - N/A   Mostly Cloudy
6:53 PM 87.1 °F 88.9 °F 64.9 °F 48% 29.87 in 10.0 mi South 3.5 mph - N/A   Mostly Cloudy
7:53 PM 82.0 °F 84.1 °F 66.0 °F 58% 29.87 in 10.0 mi Calm Calm - N/A   Clear
8:53 PM 80.1 °F 81.9 °F 64.9 °F 60% 29.90 in 10.0 mi Calm Calm - N/A   Clear
9:53 PM 78.1 °F - 66.9 °F 68% 29.94 in 10.0 mi South 5.8 mph - N/A   Mostly Cloudy
10:53 PM 77.0 °F - 66.9 °F 71% 29.95 in 10.0 mi South 3.5 mph - N/A   Clear
11:53 PM 75.9 °F - 66.0 °F 71% 29.94 in 10.0 mi SW 3.5 mph - N/A   Clear